TimeEST,TemperatureF,Dew PointF,Humidity,Sea Level PressureIn,VisibilityMPH,Wind Direction,Wind SpeedMPH,Gust SpeedMPH,PrecipitationIn,Events,Conditions,WindDirDegrees,DateUTC
12:54 AM,30.0,28.9,96,29.91,1.2,East,3.5,-,0.02,Snow,Light Snow,90,2014-01-21 05:54:00
1:01 AM,30.0,28.0,92,29.83,1.5,East,4.6,-,0.00,Snow,Light Snow,100,2014-01-21 06:01:00
1:54 AM,28.9,28.0,96,29.88,1.0,East,5.8,-,0.02,Snow,Light Snow,100,2014-01-21 06:54:00
2:24 AM,28.9,28.0,96,29.80,2.0,East,5.8,-,0.00,Snow,Light Snow,100,2014-01-21 07:24:00
2:32 AM,28.9,28.0,96,29.80,2.0,East,3.5,-,0.00,Snow,Light Snow,90,2014-01-21 07:32:00
2:40 AM,28.9,28.0,96,29.80,2.0,East,3.5,-,0.00,Snow,Light Snow,100,2014-01-21 07:40:00
2:54 AM,28.9,28.0,96,29.87,2.5,East,4.6,-,0.01,Snow,Light Snow,100,2014-01-21 07:54:00
3:10 AM,28.9,28.0,96,29.79,1.8,East,6.9,-,0.00,Snow,Light Snow,100,2014-01-21 08:10:00
3:54 AM,28.9,27.0,92,29.85,1.5,ESE,6.9,-,0.00,Snow,Light Snow,110,2014-01-21 08:54:00
4:54 AM,28.0,28.0,100,29.85,1.2,ENE,4.6,-,0.02,Snow,Light Snow,60,2014-01-21 09:54:00
5:01 AM,28.0,27.0,96,29.78,1.2,ENE,4.6,-,0.00,Snow,Light Snow,60,2014-01-21 10:01:00
5:15 AM,28.0,27.0,96,29.78,1.2,ENE,5.8,-,0.01,Snow,Light Snow,70,2014-01-21 10:15:00
5:29 AM,24.1,21.9,91,29.79,0.8,North,18.4,26.5,0.02,Snow,Light Snow,10,2014-01-21 10:29:00
5:44 AM,21.9,19.0,89,29.80,1.0,North,19.6,26.5,0.03,Snow,Light Snow,10,2014-01-21 10:44:00
5:54 AM,19.9,18.0,92,29.90,1.2,North,20.7,26.5,0.03,Snow,Light Snow,10,2014-01-21 10:54:00
6:54 AM,18.0,15.1,88,29.93,1.5,NNE,19.6,29.9,0.02,Snow,Light Snow,20,2014-01-21 11:54:00
7:54 AM,15.1,10.9,84,29.96,2.5,NNE,20.7,33.4,0.01,Snow,Light Snow,20,2014-01-21 12:54:00
8:06 AM,15.1,10.9,84,29.87,1.0,North,18.4,34.5,0.01,Snow,Light Snow,10,2014-01-21 13:06:00
8:16 AM,15.1,10.9,84,29.87,0.8,North,20.7,32.2,0.01,Snow,Light Snow,10,2014-01-21 13:16:00
8:23 AM,14.0,10.0,84,29.88,1.2,NNE,20.7,34.5,0.01,Snow,Light Snow,20,2014-01-21 13:23:00
8:54 AM,12.9,10.0,88,29.98,1.5,NNE,23.0,35.7,0.01,Snow,Light Snow,20,2014-01-21 13:54:00
9:10 AM,12.9,9.0,84,29.90,2.0,North,24.2,35.7,0.00,Snow,Light Snow,10,2014-01-21 14:10:00
9:45 AM,12.9,9.0,84,29.92,1.8,North,20.7,32.2,0.00,Snow,Light Snow,10,2014-01-21 14:45:00
9:51 AM,12.2,8.6,85,29.93,2.0,North,19.6,29.9,0.00,Snow,Light Snow,10,2014-01-21 14:51:00
9:54 AM,12.9,8.1,81,30.03,2.0,North,24.2,31.1,0.00,Snow,Light Snow,10,2014-01-21 14:54:00
10:12 AM,12.0,7.0,80,29.94,5.0,North,21.9,32.2,0.00,Snow,Light Snow,10,2014-01-21 15:12:00
10:25 AM,12.0,7.0,80,29.95,4.0,North,26.5,33.4,0.00,,Overcast,10,2014-01-21 15:25:00
10:51 AM,12.2,6.8,79,29.96,1.8,North,26.5,33.4,0.00,Snow,Light Snow,360,2014-01-21 15:51:00
10:52 AM,12.0,6.1,77,30.06,1.8,North,25.3,33.4,0.00,Snow,Light Snow,360,2014-01-21 15:52:00
11:05 AM,12.0,6.1,77,29.97,2.5,North,18.4,33.4,0.00,Snow,Light Snow,360,2014-01-21 16:05:00
11:24 AM,12.0,6.1,77,29.98,5.0,North,21.9,29.9,0.00,Snow,Light Snow,360,2014-01-21 16:24:00
11:54 AM,12.9,6.1,74,30.09,9.0,North,19.6,27.6,0.00,Snow,Light Snow,360,2014-01-21 16:54:00
12:54 PM,12.9,6.1,74,30.09,10.0,North,17.3,27.6,0.00,,Overcast,350,2014-01-21 17:54:00
1:25 PM,12.9,6.1,74,29.98,4.0,North,19.6,27.6,0.00,Snow,Light Snow,350,2014-01-21 18:25:00
1:46 PM,12.0,5.0,73,29.99,8.0,North,18.4,-,0.00,Snow,Light Snow,360,2014-01-21 18:46:00
1:54 PM,12.0,5.0,73,30.09,10.0,North,20.7,27.6,0.00,,Overcast,350,2014-01-21 18:54:00
2:54 PM,12.9,3.9,67,30.11,10.0,NNW,16.1,-,N/A,,Overcast,340,2014-01-21 19:54:00
3:42 PM,12.0,3.0,67,30.02,10.0,North,16.1,24.2,N/A,,Overcast,360,2014-01-21 20:42:00
3:54 PM,10.9,3.0,70,30.14,10.0,NNW,18.4,-,N/A,,Mostly Cloudy,340,2014-01-21 20:54:00
4:54 PM,10.9,1.9,67,30.19,10.0,NNW,16.1,-,N/A,,Overcast,340,2014-01-21 21:54:00
5:54 PM,9.0,1.9,73,30.23,10.0,NNW,15.0,-,N/A,,Overcast,340,2014-01-21 22:54:00
6:33 PM,8.1,1.0,73,30.12,10.0,NNW,12.7,-,N/A,,Scattered Clouds,330,2014-01-21 23:33:00
6:45 PM,7.0,-0.0,73,30.12,10.0,NNW,10.4,-,N/A,,Mostly Cloudy,340,2014-01-21 23:45:00
6:54 PM,7.0,-0.0,73,30.26,10.0,NNW,13.8,-,N/A,,Mostly Cloudy,340,2014-01-21 23:54:00
7:01 PM,7.0,-0.0,73,30.12,10.0,NNW,13.8,-,N/A,,Scattered Clouds,340,2014-01-22 00:01:00
7:54 PM,5.0,-0.9,76,30.27,10.0,NNW,10.4,-,N/A,,Clear,340,2014-01-22 00:54:00
8:54 PM,3.9,-2.0,76,30.27,10.0,NNW,10.4,-,N/A,,Clear,340,2014-01-22 01:54:00
9:54 PM,3.9,-2.0,76,30.27,10.0,NNW,6.9,-,N/A,,Clear,330,2014-01-22 02:54:00
10:54 PM,3.0,-2.9,76,30.27,10.0,NNW,8.1,-,N/A,,Clear,330,2014-01-22 03:54:00
11:54 PM,3.0,-4.0,73,30.27,10.0,NNW,6.9,-,N/A,,Clear,330,2014-01-22 04:54:00